Wind_Speed
43 50 56 55 54 56 54 52 51 49 48 48 48 48 48 48 49 50 51 52 52 52 52 52 52 52 52 52 52 51 50 49 48 48 48 48 48 49 50 50 50 50 51 51 52 53 54 55 56 57 59 60 62 63 65 67 68 68 67 63 60 63 67 67 66 63 62 62 62 63 63 63 63 63 62 62 61 61 62 62 62 63 63 63 63
52 53 58 59 61 61 57 56 55 53 52 52 51 50 50 50 51 51 51 52 52 52 52 52 53 53 53 53 52 52 52 52 52 52 51 51 51 51 52 53 53 53 53 53 53 54 55 56 57 58 59 61 63 64 65 67 67 67 67 66 63 62 64 67 69 69 68 67 65 64 64 64 65 66 66 67 67 66 67 67 67 66 67 67 66
59 61 64 64 65 63 59 59 58 57 58 57 55 55 55 55 54 54 54 53 52 51 52 52 53 53 53 53 53 53 53 53 54 55 55 55 55 55 55 55 55 55 55 55 55 55 56 57 58 59 60 61 62 64 65 67 68 69 69 68 67 66 65 66 68 70 72 73 72 71 68 67 66 66 67 68 70 71 71 71 71 70 70 70 69
62 63 63 63 65 65 62 60 59 59 60 59 57 57 58 58 57 56 57 57 54 53 53 54 54 52 52 53 53 53 54 54 55 56 57 58 58 58 58 58 58 58 58 57 57 57 58 59 60 60 61 62 62 63 65 67 68 70 71 70 70 70 69 69 69 70 71 73 75 77 76 74 72 71 70 68 68 69 70 71 71 70 70 71 71
60 61 60 61 63 64 62 60 60 59 60 60 59 59 60 59 57 57 59 59 56 54 54 55 55 54 54 54 55 56 56 56 56 57 59 59 60 61 61 61 61 61 61 61 60 60 60 60 61 62 63 63 64 64 65 66 68 70 71 72 72 72 72 72 73 74 74 74 74 76 78 79 79 77 76 75 73 71 70 69 69 70 70 70 71
58 59 59 59 59 60 60 59 59 59 59 59 59 59 60 57 53 54 57 57 56 55 55 55 56 57 57 57 59 58 58 58 58 57 58 60 61 62 63 63 63 63 63 64 63 64 64 64 64 64 64 65 66 66 66 67 68 69 71 72 73 74 74 74 74 75 76 78 78 77 77 79 81 82 81 80 79 78 75 73 72 71 71 72 72
57 57 57 57 57 58 58 57 58 58 57 57 57 58 58 56 53 51 48 47 49 53 55 55 54 54 53 55 59 57 54 56 58 60 61 62 63 63 64 64 64 65 66 66 67 67 67 67 67 67 67 67 67 68 68 69 69 70 70 72 73 75 76 77 77 77 77 78 79 80 79 79 80 83 85 84 83 82 81 79 78 77 76 75 74
56 56 57 57 56 57 57 56 57 57 56 56 56 55 56 56 56 52 44 40 41 45 48 50 51 51 50 52 55 55 53 51 53 58 63 65 65 66 66 65 65 66 67 68 69 69 70 70 70 70 70 70 70 69 70 70 71 71 72 72 73 74 76 77 78 79 80 80 81 81 82 81 80 82 84 86 86 86 85 83 83 83 82 81 80
56 56 57 56 56 57 57 56 56 56 56 57 56 56 55 55 56 54 49 46 45 43 40 42 47 51 54 54 53 54 55 53 52 56 61 63 65 67 68 68 69 70 70 70 70 70 71 72 72 72 73 73 72 72 72 72 72 73 73 73 74 75 76 77 78 79 81 82 83 84 84 84 84 83 83 85 86 87 87 87 87 87 87 87 86
57 57 57 57 57 58 57 57 57 57 57 57 57 57 57 56 56 56 56 55 54 52 48 45 47 50 54 56 56 56 58 58 58 59 62 64 66 67 68 69 70 71 71 71 72 72 72 73 73 73 74 75 75 74 74 75 75 75 75 75 75 76 76 77 78 79 80 81 83 85 86 87 88 88 87 86 86 86 87 88 89 90 90 90 90
58 58 58 59 59 59 59 59 59 59 59 59 59 59 59 58 58 58 60 61 61 61 60 58 57 56 55 58 60 61 62 63 63 63 64 66 68 69 69 70 70 70 71 71 73 74 74 74 74 74 75 76 76 77 77 77 77 77 77 77 77 78 78 79 79 80 81 81 82 84 85 87 89 90 90 90 90 89 89 89 90 90 91 91 92
59 59 59 59 60 60 61 61 61 61 61 61 61 61 61 61 61 61 62 64 65 65 65 65 64 63 62 62 62 63 64 67 69 68 67 68 68 68 70 71 72 73 73 73 73 74 75 76 76 76 77 78 78 78 78 79 79 79 79 80 80 80 81 81 82 83 83 83 84 84 85 86 87 88 90 91 92 92 92 93 92 92 92 92 93
61 61 61 61 61 62 62 63 63 63 63 63 63 64 64 64 64 64 64 65 66 67 66 66 66 65 65 64 63 62 65 70 73 72 70 69 69 68 69 70 73 75 76 76 75 75 75 76 77 78 79 80 80 80 80 80 81 81 81 82 82 83 84 84 85 85 86 86 86 86 87 87 87 88 89 90 90 91 92 93 94 94 95 95 95
64 64 64 64 64 64 64 64 65 65 65 66 66 66 67 67 67 67 67 67 67 68 67 67 67 67 66 64 64 65 68 71 73 73 71 70 70 70 70 71 73 75 76 76 75 75 74 75 76 77 79 80 81 81 82 83 83 83 83 84 84 85 86 87 88 88 89 89 89 89 90 90 90 90 91 92 91 91 92 92 93 94 94 95 96
67 67 67 67 67 66 66 66 66 67 67 68 69 69 69 69 70 69 69 69 69 69 69 69 69 68 66 65 66 69 71 72 73 72 72 72 73 73 73 73 73 75 75 75 75 75 75 75 75 76 77 78 79 79 81 83 85 86 86 87 87 87 88 89 90 91 91 92 92 92 93 93 93 93 94 94 94 94 94 93 93 93 94 94 95
70 70 70 70 69 69 69 68 68 68 68 69 70 70 71 71 71 72 72 72 72 71 71 71 70 70 68 68 70 72 73 73 72 73 73 74 75 75 75 75 75 75 75 75 76 76 76 76 77 77 77 77 76 77 79 80 82 84 85 87 88 89 91 92 92 93 93 94 94 94 95 95 96 96 97 97 97 97 97 96 96 96 95 95 94
72 72 72 72 72 72 71 71 70 70 70 70 70 70 71 71 71 72 72 73 73 72 71 71 72 72 72 72 73 73 73 73 74 74 75 76 76 76 76 76 76 76 77 77 78 78 79 79 78 78 78 78 77 78 79 80 81 81 82 84 86 88 90 92 94 94 95 96 96 96 97 97 98 99 99 100 100 101 100 99 99 99 98 97 97
73 73 73 73 73 73 73 73 72 71 71 71 71 71 71 71 71 71 71 72 72 71 71 72 73 74 73 73 73 74 74 74 74 75 76 76 77 77 77 77 77 78 78 79 79 80 80 80 80 79 79 79 79 80 80 81 82 82 83 83 85 86 88 89 90 92 94 96 97 98 99 99 100 100 101 101 102 103 103 102 103 103 101 100 100
75 75 75 74 74 74 74 74 73 73 73 73 73 73 72 72 71 71 71 71 71 70 72 74 74 74 73 73 74 74 74 75 75 76 76 76 76 77 77 77 78 78 79 79 80 81 81 81 81 80 80 81 81 81 81 82 83 84 84 85 85 86 87 88 88 89 90 92 94 97 99 101 102 102 103 103 104 104 104 104 105 105 104 104 103
76 76 76 75 75 75 75 74 74 74 75 75 75 75 74 74 73 73 72 71 70 71 74 75 74 73 73 74 75 75 75 76 76 76 76 76 77 77 77 78 78 79 79 80 80 81 81 81 81 81 81 81 82 83 83 83 84 85 85 86 86 87 87 87 88 88 89 90 91 93 95 97 99 101 103 105 106 107 107 106 106 106 105 105 105
77 76 76 76 76 75 75 75 75 75 76 76 76 76 76 75 75 75 73 71 72 74 74 73 72 72 73 75 75 76 76 76 76 77 77 77 77 78 78 78 78 79 79 79 80 80 81 80 80 80 80 81 82 83 83 84 84 85 86 86 86 87 87 87 88 88 89 90 91 92 93 94 96 97 99 101 103 106 107 108 108 108 108 107 107
77 76 76 76 76 76 75 75 75 76 76 77 76 76 77 76 75 76 74 72 74 76 74 71 71 72 73 74 75 76 77 77 76 77 77 77 77 78 78 78 78 78 78 79 79 80 80 79 78 78 79 81 81 82 82 83 83 84 84 85 85 85 85 85 86 87 88 89 90 91 92 93 94 95 96 97 98 100 102 104 106 107 108 108 108
75 75 75 75 75 75 75 75 76 76 76 76 76 77 76 75 75 76 75 74 75 76 74 72 72 72 72 73 74 75 76 76 76 76 76 76 76 76 77 77 77 77 77 78 78 78 79 78 78 78 79 80 80 81 81 82 82 82 82 83 83 83 83 83 84 84 85 86 87 88 90 91 92 93 94 95 95 95 96 97 98 100 102 104 105
72 72 72 72 72 72 73 73 74 74 74 75 75 76 75 74 74 75 75 74 74 74 74 74 73 72 72 72 72 73 74 74 75 75 75 75 75 75 75 76 76 76 76 76 76 76 77 77 77 77 78 79 79 79 80 80 79 80 80 81 81 81 82 82 82 82 82 83 83 84 86 87 89 90 91 92 92 92 92 91 91 92 93 94 96
69 69 69 69 69 69 70 71 70 70 71 71 72 72 71 70 71 72 73 72 72 71 71 72 71 70 70 70 69 70 71 71 71 72 73 73 73 73 73 74 74 74 74 74 75 75 75 76 76 76 77 77 77 77 77 77 77 77 77 78 79 80 80 80 80 80 80 80 80 81 82 83 84 86 87 87 88 88 88 87 86 86 85 85 86
66 66 66 66 66 67 67 67 67 67 67 67 67 67 67 66 67 68 69 68 68 67 67 67 66 66 66 66 66 66 66 66 67 68 68 68 68 69 69 69 70 70 71 71 72 73 74 74 75 75 75 75 75 74 74 74 74 75 75 76 76 77 77 77 76 76 76 76 77 78 79 79 80 81 81 82 82 82 82 81 79 78 78 77 78
64 63 63 64 65 65 65 65 64 64 64 63 63 63 63 62 63 64 64 64 64 64 63 62 63 62 63 63 63 63 62 63 63 63 64 64 64 65 65 65 65 66 66 67 68 69 70 71 71 71 71 71 71 71 71 71 72 72 72 72 71 71 71 70 70 70 70 70 71 72 73 75 76 77 77 77 76 76 75 74 72 71 70 70 70
62 62 62 63 62 62 63 62 61 61 60 60 61 60 59 59 59 60 61 62 61 60 60 59 59 60 60 60 60 59 59 59 59 60 60 61 61 61 61 62 62 62 63 63 64 65 66 66 66 66 66 66 66 66 67 67 67 66 66 65 65 64 64 63 63 63 63 63 64 65 67 70 71 73 73 72 71 70 69 68 66 65 65 65 65
60 60 60 59 58 59 60 59 57 57 56 57 58 58 56 57 57 57 57 58 58 57 57 56 57 57 57 56 56 56 56 56 56 57 57 57 58 58 59 59 59 60 60 61 61 61 61 61 61 61 62 62 62 63 62 62 61 61 61 60 60 59 59 58 58 58 58 59 60 62 63 65 67 68 68 68 68 66 65 63 62 61 61 61 61
57 56 56 56 55 56 57 56 54 54 54 55 56 55 54 54 54 54 54 54 54 54 54 53 54 54 53 53 53 53 53 53 53 53 54 54 55 55 56 56 57 57 57 57 57 56 57 57 58 58 59 59 58 58 57 57 57 57 57 57 56 56 55 55 55 56 56 57 58 58 59 60 61 62 63 63 63 62 61 59 58 57 57 57 57
53 53 53 54 54 54 54 53 52 52 52 52 52 53 52 51 51 51 51 51 51 51 50 50 50 50 50 49 50 50 50 51 51 51 51 51 52 52 53 53 53 53 53 53 53 54 54 55 55 55 55 55 54 54 54 55 55 54 54 54 54 54 53 53 54 53 53 54 54 54 54 54 55 55 56 56 55 55 54 53 52 52 52 52 53
51 51 51 52 52 51 51 51 50 49 49 49 49 49 49 49 48 47 47 47 47 47 46 46 47 47 47 47 47 47 48 48 48 48 48 49 49 50 50 49 49 49 49 50 51 52 52 52 52 52 52 52 52 52 53 53 52 52 51 51 51 51 49 49 49 48 47 48 48 47 47 47 48 48 48 48 48 48 48 47 47 47 47 48 49
50 50 50 49 49 48 48 48 48 48 47 46 46 46 46 46 45 45 45 45 44 44 44 44 44 44 44 44 44 45 45 45 45 46 46 46 47 47 46 46 46 46 47 48 49 49 49 49 49 50 50 50 51 51 51 50 49 49 48 46 45 44 43 42 42 42 41 41 41 41 41 41 41 42 42 42 42 43 43 43 42 42 43 44 45
49 49 48 47 47 47 46 47 48 47 46 45 44 44 44 44 44 43 43 43 43 43 44 43 43 43 43 43 43 43 43 43 43 43 43 44 43 43 42 43 43 44 45 46 46 46 46 46 47 48 48 49 49 49 48 47 46 44 42 40 39 38 37 36 36 36 36 36 36 36 36 36 36 37 37 37 38 38 38 38 38 38 39 40 41
48 47 47 46 46 46 46 46 46 46 45 44 44 43 42 42 43 43 43 44 44 43 44 44 43 43 42 42 41 41 41 41 41 41 41 41 40 40 41 41 43 43 43 43 43 44 45 46 46 47 47 47 47 45 44 42 41 38 36 35 33 32 32 31 31 31 32 32 33 33 32 32 32 33 33 33 33 33 34 34 33 34 35 35 36
46 46 45 46 46 46 46 46 46 45 44 43 43 42 42 42 42 43 43 43 44 44 44 44 43 43 42 41 41 41 40 41 40 40 39 39 39 40 41 41 42 42 42 42 43 44 44 45 45 45 45 44 42 40 38 37 35 33 31 30 29 29 28 28 28 28 29 29 29 29 29 29 29 29 30 29 29 29 30 30 30 30 31 31 32
44 45 45 45 46 46 46 46 46 45 44 43 43 42 42 42 42 42 42 43 43 43 42 42 42 42 42 41 41 41 41 40 40 39 39 40 40 41 41 41 41 41 42 42 42 42 43 43 42 41 40 39 36 34 33 32 31 29 28 28 27 27 26 26 26 26 26 27 27 27 27 27 27 27 27 27 27 27 27 27 27 27 27 27 27
44 45 45 45 45 45 45 46 45 44 43 43 42 42 42 42 42 42 42 41 41 41 40 40 41 41 41 41 41 40 40 40 40 39 40 40 40 40 40 40 41 41 41 41 40 40 40 39 38 36 36 34 32 30 30 29 28 27 27 26 25 25 24 24 24 25 25 25 26 26 26 26 27 27 27 27 27 27 26 26 25 25 24 24 24
43 44 44 43 44 44 44 44 44 43 42 42 42 42 42 41 41 40 40 40 39 39 39 39 39 39 39 39 39 39 39 39 39 39 39 39 39 39 39 40 39 39 38 38 38 37 36 35 33 33 32 30 28 28 28 27 26 25 25 24 23 23 23 23 23 24 24 25 25 25 25 25 26 26 26 26 25 25 24 23 23 22 22 21 21
42 42 42 42 42 43 42 42 41 40 40 40 40 40 40 39 39 38 38 37 37 37 37 37 37 37 36 36 36 37 37 37 37 37 37 37 37 38 38 37 37 36 35 35 34 33 32 30 30 30 29 28 26 26 26 25 24 23 22 22 22 22 22 23 23 23 24 24 24 23 23 23 23 23 23 23 23 23 22 21 20 20 20 19 19
40 41 41 42 42 41 41 40 39 38 38 38 38 38 37 37 37 36 35 35 35 35 35 35 35 35 34 34 34 35 35 35 35 35 35 35 35 35 35 34 33 32 32 32 31 30 28 27 27 28 27 25 25 25 24 23 22 21 20 21 21 21 21 21 21 22 22 22 21 21 21 21 21 21 21 21 21 20 20 19 19 18 18 18 18
40 40 41 41 40 40 39 39 38 37 36 36 36 36 36 35 35 34 34 33 33 33 33 34 34 33 33 33 33 32 33 33 33 34 34 34 33 33 32 31 30 30 30 29 28 27 26 25 25 26 25 24 23 23 22 22 20 19 19 19 20 20 20 19 20 20 20 20 20 20 20 20 20 19 19 19 19 18 18 18 18 18 18 18 18
39 39 39 39 38 38 38 38 37 36 35 35 35 35 34 34 33 32 32 32 32 32 32 32 32 32 31 31 30 30 31 32 32 32 32 31 31 30 29 29 29 29 28 28 27 26 25 24 24 24 24 23 22 22 22 21 19 18 18 19 19 19 18 18 19 19 19 19 19 19 18 18 18 18 17 17 17 17 17 17 17 17 18 18 18
37 36 36 36 37 37 37 37 36 36 35 34 33 33 33 32 31 31 31 30 30 30 30 30 30 29 29 29 29 29 30 30 30 30 30 29 29 28 28 28 28 28 28 27 26 25 24 22 22 22 23 23 22 22 21 20 19 17 18 18 18 18 17 18 18 19 19 18 18 17 17 17 17 16 16 16 16 16 16 16 16 17 18 18 18
34 34 34 35 36 36 35 35 34 34 33 33 32 32 32 31 30 30 30 29 29 29 29 29 28 28 28 28 28 28 29 29 29 29 28 28 27 27 28 28 29 28 28 27 26 24 22 21 21 22 22 23 22 22 21 20 19 17 17 18 18 17 17 17 18 18 17 17 16 16 16 16 15 15 15 15 15 15 15 15 15 16 17 17 17
32 33 34 34 34 33 33 33 32 32 32 32 31 31 31 30 30 29 29 29 29 29 28 28 28 28 28 28 28 28 29 29 29 28 28 27 27 28 29 29 29 29 28 28 26 24 22 21 21 21 23 23 23 22 21 20 19 17 17 17 18 18 17 17 17 17 16 16 16 15 15 15 14 14 13 13 13 13 14 14 14 15 15 16 16
31 32 32 32 31 31 31 31 31 31 31 31 31 31 30 30 30 30 30 30 30 29 29 29 29 29 29 29 29 29 29 29 28 28 27 27 28 30 30 30 30 29 29 29 26 23 21 20 21 22 23 24 24 23 22 20 18 17 17 18 18 18 17 17 16 16 16 15 15 14 13 13 13 12 11 11 12 13 13 13 13 14 14 14 14
30 31 30 29 29 29 29 30 30 30 30 31 31 31 31 31 31 32 32 32 31 31 31 30 30 30 30 30 31 31 30 30 30 29 30 31 32 32 31 30 30 30 30 29 26 23 21 21 21 23 24 25 24 23 23 21 19 18 18 19 19 18 17 16 16 15 15 15 13 12 12 12 11 10 10 10 11 12 13 12 12 13 13 13 13
31 31 30 29 29 29 30 30 30 30 31 31 32 32 32 32 32 33 33 33 33 32 32 32 32 32 33 33 33 33 33 33 33 33 34 34 34 33 31 31 31 31 30 29 26 24 22 22 22 24 26 26 25 24 23 22 21 19 19 19 19 18 17 17 16 15 15 14 12 11 10 10 10 10 9 9 10 11 12 11 11 11 11 11 11
33 32 31 30 30 30 31 31 31 32 32 32 33 33 33 33 33 34 34 34 34 34 34 34 34 34 35 35 35 35 35 36 36 36 36 35 35 33 32 31 31 31 30 29 27 25 24 23 23 25 27 28 26 25 25 24 22 20 19 20 20 18 17 17 17 16 15 13 12 10 10 10 9 8 9 9 9 10 11 11 10 10 10 10 10
33 32 30 30 30 31 32 32 33 33 34 34 34 35 34 35 35 36 36 36 36 36 36 36 36 37 37 37 37 37 37 37 37 37 37 37 36 35 34 33 32 31 30 29 28 27 26 24 24 27 29 29 28 27 26 25 23 21 21 21 21 19 18 18 17 16 15 14 12 11 10 10 9 7 7 9 9 9 9 9 9 8 8 9 8
Wind_Direction
247 262 266 264 265 266 264 262 262 260 260 259 259 259 259 259 259 259 259 259 258 258 258 259 259 258 257 256 256 255 255 255 255 254 253 252 250 250 249 249 249 249 248 247 246 245 245 244 243 243 242 242 243 243 242 242 243 244 245 244 239 235 233 233 233 233 235 237 240 241 242 244 244 244 243 242 242 244 246 248 249 251 253 255 256
243 249 256 261 266 268 265 264 264 263 261 260 259 259 259 260 260 259 259 259 258 258 258 258 259 259 259 258 257 257 256 256 255 255 254 253 252 250 250 249 248 248 248 248 247 246 245 244 244 243 243 242 242 243 243 243 244 244 245 246 245 241 237 235 234 234 234 236 237 238 240 242 244 246 247 247 247 247 248 250 251 252 253 254 256
250 250 254 261 265 265 264 265 265 264 263 262 261 261 261 260 260 260 259 258 257 259 260 259 258 258 259 260 259 259 258 257 256 256 254 253 252 251 250 249 249 248 248 248 248 248 247 246 245 244 244 244 243 243 244 243 244 245 246 246 246 245 242 239 236 235 234 235 236 238 238 239 240 242 244 246 248 249 250 251 252 253 254 254 255
255 254 256 258 261 262 263 263 263 263 264 263 263 262 262 260 260 260 260 260 259 260 260 259 259 259 258 258 259 259 258 257 257 256 255 254 253 252 251 251 250 249 249 248 248 248 248 248 247 246 245 245 245 245 245 245 244 245 246 247 247 246 246 244 241 240 238 236 236 237 238 239 239 240 241 242 244 245 248 249 251 252 253 253 254
258 258 257 257 259 262 263 262 262 262 262 263 263 262 261 262 262 262 262 263 263 262 261 261 261 260 259 258 259 258 257 256 255 255 256 255 254 253 252 251 251 251 251 250 249 249 249 248 248 248 248 247 246 246 246 246 246 246 246 247 247 247 247 246 245 244 243 242 239 237 237 238 239 240 241 243 243 243 244 245 247 249 250 251 252
261 260 259 258 259 260 262 262 261 261 260 261 261 261 261 262 262 263 263 264 264 262 263 265 265 264 264 262 260 258 256 254 254 255 255 255 255 255 253 252 251 251 251 251 250 250 250 249 248 248 248 248 248 247 247 247 247 247 247 247 248 248 248 248 247 246 246 246 246 243 240 239 238 239 240 242 244 246 246 245 245 246 247 248 250
263 262 261 260 259 259 260 260 260 260 260 259 259 259 260 259 258 260 263 265 265 262 261 264 265 264 263 262 260 259 258 256 254 254 254 254 254 255 254 253 252 251 251 251 250 250 250 250 250 249 249 248 248 248 248 248 248 248 248 248 249 249 249 249 248 248 247 247 247 248 246 243 241 240 240 240 241 244 246 247 248 248 247 247 247
263 263 262 262 261 260 260 259 259 259 259 259 258 257 257 257 256 258 258 258 261 261 259 259 260 257 255 256 260 262 262 260 257 254 253 252 253 254 254 254 254 253 252 251 251 251 250 250 250 250 250 250 249 249 249 250 250 250 249 249 249 250 250 250 250 250 249 249 248 248 249 248 246 244 242 241 241 242 243 245 247 249 250 250 250
262 262 262 262 262 261 261 260 259 259 259 259 258 256 255 254 255 255 251 248 250 254 254 256 256 253 251 253 258 261 261 260 258 257 257 256 256 255 254 254 254 253 253 253 252 252 252 251 251 251 251 251 251 250 250 250 250 250 251 251 250 250 251 251 251 251 251 251 250 250 250 250 250 249 247 244 242 242 243 243 244 246 248 249 251
261 261 261 261 261 261 261 260 260 259 258 258 258 257 256 255 254 252 250 247 246 247 250 253 254 253 252 252 253 255 258 259 259 260 261 262 262 261 259 257 255 254 254 254 254 253 253 253 252 252 252 252 252 252 251 251 251 250 250 251 251 251 251 251 251 252 252 251 251 251 251 251 251 251 251 249 247 246 245 245 244 245 246 248 249
262 261 261 261 261 260 260 260 260 259 259 258 258 257 256 255 254 252 251 250 250 251 252 254 254 253 252 252 251 252 255 258 260 261 261 261 261 262 262 261 259 257 255 254 254 254 254 254 254 254 254 253 253 252 252 252 252 252 251 251 251 251 252 252 252 252 252 252 252 252 252 252 252 252 252 252 251 250 249 248 247 247 247 248 248
262 262 262 262 262 262 261 261 260 259 259 259 258 257 257 256 254 253 252 252 252 253 254 255 255 254 252 251 251 252 254 256 258 259 259 259 259 259 261 262 262 261 259 257 256 256 256 255 255 255 255 255 255 254 254 253 253 252 252 252 252 252 252 252 252 252 252 252 252 252 252 252 253 253 253 252 252 252 251 251 251 250 250 250 250
263 263 262 261 261 261 261 262 261 261 260 260 259 258 258 257 256 255 254 253 253 254 254 254 255 255 254 253 252 252 253 254 255 257 258 258 258 257 257 259 261 262 262 261 260 259 258 257 256 256 256 256 255 255 255 255 255 254 253 253 253 253 253 253 253 253 253 253 252 252 253 253 253 253 254 253 253 252 252 252 252 252 252 252 252
266 265 264 263 262 261 260 261 261 261 261 261 260 260 259 259 258 257 257 256 256 255 255 255 255 255 255 256 256 255 254 254 255 256 257 258 258 258 257 257 259 260 262 262 263 262 261 259 258 257 257 257 256 256 256 256 256 255 255 255 254 254 254 254 254 254 254 254 254 254 254 254 253 253 254 254 254 254 253 253 253 253 253 253 253
268 267 266 265 264 263 262 261 260 260 260 260 260 260 260 260 260 259 259 258 258 258 257 257 257 256 256 256 257 257 256 256 257 258 258 258 258 258 258 258 259 260 261 263 263 264 263 262 261 260 259 259 259 259 259 258 257 256 256 255 255 255 255 255 255 255 254 254 255 255 255 255 255 254 254 254 255 255 254 254 254 254 254 253 253
270 269 268 267 266 265 264 262 261 260 260 260 260 260 260 260 260 261 261 261 260 260 260 260 260 260 258 257 256 256 256 258 258 259 259 258 258 258 258 258 259 260 261 262 263 263 263 263 263 262 262 261 261 261 261 260 259 258 257 257 256 256 256 256 256 255 255 255 255 255 255 255 256 256 256 255 255 255 255 255 255 255 255 255 255
270 270 269 269 268 267 266 265 264 263 262 261 260 260 260 260 260 260 261 261 261 261 262 262 262 261 260 259 258 258 258 258 258 258 258 258 259 259 258 259 259 260 260 261 261 262 262 262 262 262 263 263 263 262 262 261 261 260 259 259 258 257 256 256 256 256 256 256 256 256 256 255 256 256 256 256 256 256 256 256 256 255 255 255 255
269 268 268 268 268 268 268 267 267 266 265 263 262 261 261 260 259 259 259 260 260 261 261 261 260 260 260 260 260 260 259 259 259 258 258 258 258 259 259 259 259 260 260 260 261 261 262 262 262 262 262 262 262 262 262 262 262 261 261 260 260 259 259 258 258 257 257 257 257 257 257 257 257 256 256 256 256 256 257 257 257 257 256 256 255
268 267 267 267 267 266 267 267 267 267 267 266 265 264 263 261 260 259 259 258 258 259 259 259 259 259 259 259 259 259 259 259 259 259 259 259 259 259 259 259 259 259 260 260 260 261 261 261 262 262 262 262 262 262 262 262 262 262 262 261 261 261 261 260 260 260 259 259 258 257 257 257 257 257 257 257 257 257 257 256 256 257 257 257 257
267 267 267 267 266 266 266 265 266 266 266 266 265 265 265 264 263 262 261 260 260 259 258 258 258 259 259 259 259 259 259 259 259 259 259 259 259 259 259 259 259 259 260 260 260 261 261 261 262 262 263 263 263 263 262 262 262 262 262 262 262 262 262 262 262 261 261 261 261 260 259 258 257 257 257 258 258 258 258 257 257 257 257 257 257
267 267 267 267 267 266 266 266 265 265 265 265 265 266 266 266 266 265 265 264 263 262 260 260 260 260 260 260 260 260 260 259 259 259 259 259 259 259 259 259 259 259 260 260 261 261 261 262 262 263 263 263 263 263 263 263 263 263 263 262 262 262 262 262 262 262 262 262 262 262 261 261 260 259 258 258 258 258 258 259 258 258 258 257 257
266 266 266 266 266 266 266 266 265 265 265 265 265 266 266 266 267 267 266 266 265 265 264 263 263 262 261 261 261 261 261 261 261 260 260 259 259 259 259 259 259 259 260 260 261 262 262 262 263 263 264 264 264 264 264 264 264 264 264 264 264 263 263 263 263 263 263 262 262 262 262 262 262 262 261 260 259 258 258 258 258 259 259 258 258
266 265 265 265 265 265 265 265 265 264 265 265 266 266 266 266 266 267 267 267 266 266 267 266 265 264 263 262 262 262 262 262 262 262 261 261 261 261 261 261 261 260 260 261 261 262 262 263 263 263 264 264 264 265 265 265 265 266 266 266 266 266 265 265 264 263 263 263 263 263 263 263 263 263 263 263 262 261 260 259 259 259 259 259 259
265 265 265 264 264 264 264 264 263 263 264 264 264 265 265 266 266 267 267 266 266 266 266 266 265 265 264 263 263 262 262 262 262 262 262 262 262 262 262 262 262 262 262 262 262 263 263 263 264 264 264 264 264 265 265 265 266 267 267 267 268 267 267 267 266 265 265 264 264 263 263 263 264 264 264 264 264 264 263 262 261 260 260 259 259
264 264 264 264 264 264 263 263 263 263 263 263 263 264 265 265 266 266 266 266 266 265 265 265 265 265 264 264 263 263 262 262 262 262 262 262 262 262 262 262 262 263 263 263 264 264 264 264 264 264 264 264 265 265 266 266 267 267 267 267 267 267 267 267 267 267 267 267 267 266 265 265 265 265 265 265 265 265 264 264 263 262 262 261 261
262 262 263 263 263 263 263 263 263 263 263 263 264 264 264 264 264 265 265 265 265 265 265 265 265 264 264 264 263 263 262 262 262 261 262 262 262 262 262 263 263 263 264 264 264 265 265 265 265 265 265 266 266 267 268 268 268 268 268 268 267 267 267 268 268 268 268 268 267 267 266 266 266 266 265 265 265 265 265 264 264 263 263 262 262
261 261 261 261 261 262 262 263 263 263 263 263 263 263 263 263 263 263 264 264 264 264 264 264 264 264 263 263 262 263 263 263 262 262 263 262 262 263 263 263 263 263 263 264 264 264 265 265 266 267 267 268 269 270 270 270 269 269 268 268 268 269 269 269 268 268 267 266 266 266 266 266 266 266 265 265 265 265 265 265 265 265 264 263 262
260 260 260 260 260 261 261 261 261 262 262 262 262 261 261 261 261 261 262 262 263 263 263 263 263 262 262 262 263 263 262 262 262 262 262 262 262 262 263 263 263 263 264 264 264 265 265 266 267 269 270 270 270 270 270 269 269 270 270 271 271 271 270 269 269 268 267 266 266 265 264 264 264 265 266 266 267 267 267 267 267 266 264 262 261
259 259 259 260 260 260 260 260 260 260 260 260 260 260 260 259 259 259 260 261 261 262 261 261 261 261 261 262 262 262 262 261 261 261 261 262 262 262 262 262 263 263 263 264 265 266 267 268 269 270 270 270 270 270 270 271 272 273 273 272 272 271 271 271 270 269 268 267 265 264 263 263 264 265 266 267 268 268 269 268 268 267 265 263 262
258 258 259 259 259 258 259 259 259 259 258 258 259 259 259 258 259 259 259 259 260 260 260 260 261 261 261 261 261 261 261 261 261 261 261 261 261 261 261 262 262 263 264 265 266 268 269 269 269 269 270 270 271 272 273 274 274 274 273 273 273 273 273 273 272 271 270 269 267 266 265 265 265 265 266 267 268 269 269 269 269 268 266 265 264
259 259 258 258 258 258 258 259 258 257 257 257 257 258 258 257 257 257 257 258 258 259 260 260 260 260 260 260 260 260 260 260 260 260 260 260 260 261 261 262 262 264 265 267 268 269 269 269 269 270 272 273 274 275 275 275 274 274 275 275 275 275 274 273 272 271 271 270 269 268 268 267 267 267 267 267 268 268 268 268 267 266 265 264 263
258 258 257 257 257 257 257 257 257 256 255 254 255 255 256 256 256 255 256 256 257 258 258 259 259 260 259 259 259 259 259 259 259 259 260 260 261 261 262 263 264 266 267 267 268 268 269 270 272 273 274 275 275 275 275 275 275 276 276 276 276 275 274 273 272 271 270 269 268 268 268 267 267 267 267 267 267 267 266 266 266 266 265 264 263
257 256 255 255 255 255 255 256 255 254 253 253 253 253 253 254 254 254 254 255 255 256 256 257 257 258 258 258 258 258 258 258 259 259 260 260 261 262 263 265 266 266 266 266 267 268 270 272 273 274 275 275 275 276 276 277 277 277 277 276 275 274 273 271 270 270 269 268 268 267 266 266 266 266 266 266 266 266 266 266 266 266 265 265 264
254 255 255 255 254 254 253 253 254 254 253 252 252 252 252 253 253 253 253 254 254 254 255 255 255 256 256 257 257 257 258 259 259 259 259 260 262 263 264 264 264 264 265 266 268 270 272 273 273 274 275 276 277 278 279 279 278 277 277 275 274 273 271 270 269 269 269 268 268 267 267 266 266 266 267 267 267 267 267 267 266 265 264 264 264
253 253 254 254 254 254 253 253 253 254 254 253 253 252 252 252 253 253 253 253 253 254 254 255 255 256 256 257 257 257 258 258 258 258 259 261 262 263 263 263 263 264 266 268 270 272 273 274 274 276 277 277 278 279 279 278 277 277 276 275 273 272 271 270 269 269 268 268 268 268 269 269 268 268 268 268 268 268 268 268 266 265 264 264 264
252 253 253 253 253 254 254 255 255 254 254 254 254 254 253 253 252 252 252 252 253 253 253 254 255 256 256 257 257 257 257 257 258 259 260 261 261 262 262 263 265 267 268 270 270 271 273 274 275 277 277 278 278 278 277 277 276 276 275 274 273 272 271 270 269 268 268 269 270 271 271 272 271 271 271 271 270 270 269 268 267 266 265 264 264
252 252 252 252 252 253 254 254 255 255 255 255 255 255 254 254 253 253 253 253 253 253 253 253 254 254 254 254 255 255 256 256 257 258 258 259 259 261 262 264 265 266 267 269 270 272 273 274 275 276 276 276 277 277 276 276 275 275 273 272 271 270 270 270 269 270 271 272 273 274 275 276 276 277 276 276 275 274 273 273 271 270 268 267 266
251 251 251 251 251 251 252 252 253 254 255 255 254 254 254 254 253 254 254 254 254 253 253 253 252 252 252 252 252 253 253 254 255 255 256 257 258 260 261 262 264 265 267 269 271 272 273 274 275 275 275 275 275 275 274 274 273 272 270 269 269 269 270 270 271 273 274 274 275 276 277 278 278 278 278 277 277 276 275 275 274 272 271 269 268
249 249 250 250 250 250 251 251 252 252 253 253 253 253 253 253 253 254 254 254 254 253 253 252 251 251 251 251 251 251 252 252 253 253 254 255 256 258 259 261 263 265 267 268 269 270 271 272 272 272 272 273 273 272 271 269 267 266 266 266 267 269 270 271 272 273 273 273 274 275 275 276 276 276 275 275 274 274 273 273 272 272 271 270 268
247 248 248 249 249 249 249 250 250 250 251 251 252 252 252 253 253 253 254 254 253 253 253 252 252 251 251 251 250 250 250 251 251 252 252 253 254 256 258 260 262 263 264 265 266 267 267 268 268 269 270 271 270 268 265 263 261 260 261 263 265 266 268 269 270 271 272 273 273 273 273 273 273 272 272 271 270 270 270 270 270 270 270 269 269
246 246 246 247 247 248 248 249 249 249 249 249 250 250 251 251 252 252 252 252 252 252 252 252 252 251 251 250 250 249 249 249 249 250 250 251 253 255 256 258 260 260 261 261 262 263 263 264 266 267 268 268 265 262 259 257 256 256 258 260 263 264 267 269 270 271 272 272 272 271 271 270 269 268 268 268 268 268 269 270 270 269 270 270 270
243 243 244 245 246 247 248 248 248 248 248 248 248 248 249 249 250 250 250 250 251 251 251 251 251 250 249 249 249 248 248 248 248 248 249 250 251 252 254 256 257 257 257 258 259 259 260 262 264 265 265 263 259 256 254 254 253 254 256 259 262 264 267 269 270 270 270 270 269 268 268 267 267 266 266 266 266 267 268 269 271 271 272 273 274
240 241 242 243 244 245 246 246 247 247 246 246 246 247 247 247 247 247 248 248 248 248 248 248 248 248 248 247 247 246 246 246 247 247 248 249 250 252 253 253 253 253 254 255 256 257 259 260 262 262 261 257 252 250 250 251 252 252 255 259 262 265 267 268 268 268 268 267 266 266 265 265 265 265 265 265 266 267 268 270 271 273 274 274 274
239 240 240 241 241 242 243 244 244 245 245 244 244 244 245 245 244 244 244 244 244 244 244 245 246 246 245 245 244 244 244 245 246 247 248 249 250 251 251 250 250 251 252 253 254 256 258 259 259 258 255 250 246 245 247 249 249 251 254 258 262 263 264 264 265 265 265 264 264 264 265 266 266 266 265 265 266 267 268 268 269 269 270 271 272
236 236 236 237 238 239 240 241 242 242 242 242 242 242 242 242 241 240 240 240 240 240 241 242 243 243 242 242 241 241 243 244 245 246 247 247 248 248 247 247 248 249 250 252 254 255 256 256 255 252 247 244 242 242 244 245 246 248 252 255 258 259 259 259 260 260 260 261 263 266 267 267 266 266 266 267 269 271 270 267 265 265 267 269 272
232 232 233 235 236 237 238 238 239 239 239 239 239 239 239 238 237 237 237 237 238 238 238 239 240 240 240 240 240 241 243 245 246 247 247 245 244 245 247 248 248 248 249 251 253 253 253 253 251 246 241 239 239 240 241 242 243 244 247 251 254 255 255 255 255 256 257 260 263 265 267 268 267 267 271 275 278 277 274 270 266 265 266 269 272
231 232 233 234 235 235 235 235 235 235 236 236 236 235 235 234 234 234 234 236 237 237 238 238 239 239 240 240 241 242 244 245 245 245 243 242 243 245 248 248 247 247 249 251 252 251 250 250 246 240 236 235 236 238 240 241 240 240 243 247 250 251 251 250 251 254 256 260 262 264 267 270 270 272 279 286 287 283 278 275 272 271 271 273 273
231 232 233 233 233 233 233 233 233 233 233 234 234 233 233 232 232 233 234 235 236 237 237 238 239 240 241 242 244 245 246 245 243 242 241 242 244 247 248 247 246 247 248 250 251 250 248 246 241 236 233 233 234 236 239 240 238 237 241 245 247 248 247 247 249 253 256 258 259 262 267 273 277 280 288 295 295 289 284 280 280 280 281 282 281
231 232 231 230 230 230 231 231 232 232 232 233 233 233 233 233 233 234 236 237 238 239 239 240 240 241 242 243 244 245 245 245 244 244 244 245 247 248 247 245 245 247 248 250 251 249 246 242 238 232 230 231 233 235 238 238 236 236 239 243 245 245 244 245 247 251 254 255 256 259 266 272 278 285 293 297 296 292 288 287 289 290 290 288 285
232 232 232 231 230 231 231 232 232 232 232 233 234 234 234 234 234 235 236 237 238 240 241 242 243 244 245 246 247 247 247 247 247 248 249 250 250 250 248 246 246 247 247 248 250 248 244 240 235 230 228 230 231 234 237 238 236 234 236 240 242 242 242 242 245 248 251 252 252 255 260 265 271 282 292 295 292 287 286 289 292 294 294 291 287
235 235 234 232 232 232 232 232 232 233 232 233 233 234 234 234 235 235 236 237 238 239 240 241 243 244 245 247 248 250 251 251 252 252 253 253 253 252 250 248 247 246 246 246 248 247 244 239 233 228 227 228 230 233 236 237 236 233 233 236 237 238 238 240 241 244 247 248 248 248 253 256 259 268 283 290 287 281 280 284 288 289 290 289 286
Height
10536 10529 10524 10524 10526 10526 10527 10528 10529 10530 10531 10531 10532 10533 10534 10535 10536 10536 10536 10537 10537 10539 10540 10542 10543 10544 10546 10547 10549 10550 10552 10554 10556 10557 10558 10560 10561 10562 10563 10564 10565 10566 10567 10568 10569 10570 10571 10572 10573 10574 10575 10576 10578 10579 10581 10582 10584 10585 10587 10590 10593 10595 10597 10599 10601 10603 10604 10605 10607 10609 10611 10612 10613 10615 10616 10618 10620 10622 10623 10625 10626 10628 10629 10630 10632
10530 10525 10518 10518 10518 10518 10520 10520 10520 10523 10524 10524 10525 10526 10527 10527 10528 10529 10529 10530 10531 10532 10534 10535 10536 10537 10539 10541 10542 10544 10546 10547 10548 10550 10551 10552 10553 10554 10555 10556 10557 10558 10559 10560 10561 10562 10563 10564 10566 10567 10568 10569 10570 10571 10573 10574 10576 10577 10579 10581 10583 10586 10588 10591 10593 10595 10597 10599 10601 10603 10605 10606 10607 10608 10610 10611 10613 10615 10616 10617 10619 10621 10622 10623 10625
10518 10516 10514 10514 10511 10510 10511 10512 10512 10514 10515 10515 10518 10519 10519 10519 10521 10522 10522 10523 10524 10525 10527 10528 10529 10531 10533 10534 10535 10537 10538 10539 10540 10541 10542 10543 10545 10545 10546 10547 10548 10550 10551 10553 10554 10555 10556 10557 10558 10559 10561 10562 10563 10564 10566 10567 10569 10570 10571 10573 10574 10576 10578 10581 10583 10586 10588 10590 10593 10595 10597 10599 10600 10601 10602 10603 10605 10607 10608 10610 10612 10613 10614 10616 10617
10505 10506 10507 10506 10502 10501 10503 10504 10505 10506 10506 10507 10510 10510 10509 10510 10513 10514 10514 10515 10517 10518 10519 10520 10522 10525 10527 10527 10528 10529 10530 10531 10531 10532 10533 10534 10536 10537 10538 10539 10540 10542 10544 10546 10547 10548 10549 10550 10551 10552 10553 10555 10556 10557 10558 10560 10561 10563 10564 10566 10568 10569 10570 10572 10574 10576 10578 10580 10583 10585 10587 10590 10592 10593 10594 10596 10597 10599 10600 10602 10603 10605 10606 10607 10608
10493 10494 10496 10496 10493 10492 10494 10496 10498 10499 10498 10499 10501 10501 10500 10502 10505 10507 10507 10508 10511 10512 10512 10514 10516 10518 10519 10520 10519 10519 10520 10521 10522 10523 10524 10525 10526 10528 10530 10531 10533 10534 10536 10538 10539 10540 10541 10543 10544 10544 10546 10547 10548 10550 10551 10552 10554 10555 10556 10558 10559 10561 10563 10565 10567 10568 10570 10571 10574 10576 10578 10580 10582 10583 10585 10587 10589 10591 10593 10595 10596 10597 10598 10599 10601
10482 10483 10485 10486 10485 10485 10486 10487 10489 10490 10491 10491 10492 10492 10492 10495 10499 10499 10499 10501 10504 10506 10507 10508 10509 10511 10512 10510 10508 10509 10510 10512 10513 10515 10516 10517 10517 10518 10520 10522 10524 10527 10528 10529 10531 10532 10533 10534 10536 10536 10538 10539 10540 10542 10543 10544 10546 10547 10548 10550 10551 10552 10554 10556 10558 10560 10562 10563 10565 10567 10569 10571 10573 10574 10575 10578 10580 10582 10584 10587 10589 10590 10591 10592 10593
10473 10474 10475 10476 10477 10477 10478 10479 10480 10481 10483 10484 10485 10485 10486 10488 10490 10491 10492 10493 10495 10498 10500 10502 10502 10503 10502 10498 10496 10499 10503 10504 10506 10507 10506 10506 10507 10509 10510 10513 10516 10518 10518 10519 10521 10522 10523 10525 10526 10527 10529 10530 10532 10534 10535 10536 10538 10539 10541 10542 10543 10544 10546 10547 10550 10552 10553 10555 10556 10557 10560 10562 10564 10564 10566 10569 10571 10572 10575 10578 10580 10581 10582 10584 10585
10464 10465 10466 10467 10468 10469 10470 10471 10472 10473 10475 10476 10477 10478 10479 10481 10482 10484 10485 10485 10486 10490 10495 10497 10495 10492 10491 10488 10489 10492 10494 10496 10498 10496 10494 10495 10498 10499 10502 10505 10507 10507 10508 10509 10511 10512 10514 10515 10517 10519 10520 10522 10524 10526 10528 10529 10531 10532 10533 10535 10536 10537 10538 10540 10542 10544 10545 10547 10547 10548 10550 10552 10553 10554 10556 10559 10563 10564 10566 10569 10571 10571 10573 10574 10575
10456 10457 10458 10459 10460 10461 10463 10464 10464 10466 10467 10468 10469 10471 10473 10474 10475 10478 10479 10478 10481 10485 10489 10490 10487 10483 10483 10484 10485 10485 10486 10488 10487 10484 10483 10487 10490 10491 10493 10496 10498 10498 10499 10500 10502 10503 10504 10506 10508 10510 10511 10513 10515 10518 10520 10521 10522 10524 10525 10527 10529 10530 10531 10532 10533 10535 10537 10538 10539 10539 10541 10542 10542 10543 10546 10549 10553 10555 10557 10560 10562 10562 10562 10564 10565
10448 10449 10450 10451 10452 10453 10455 10456 10457 10458 10459 10460 10462 10463 10465 10466 10468 10470 10471 10472 10475 10478 10481 10481 10478 10476 10477 10479 10479 10480 10479 10479 10478 10477 10477 10478 10480 10482 10484 10487 10489 10490 10492 10492 10493 10494 10495 10496 10499 10501 10502 10503 10505 10508 10510 10511 10513 10514 10516 10518 10520 10521 10522 10523 10524 10525 10527 10528 10529 10529 10531 10531 10531 10533 10536 10539 10542 10545 10547 10549 10551 10552 10552 10555 10556
10440 10442 10442 10443 10444 10445 10447 10448 10449 10450 10451 10453 10454 10455 10456 10458 10460 10461 10463 10464 10467 10469 10472 10473 10471 10470 10472 10472 10473 10475 10474 10472 10470 10470 10471 10470 10471 10473 10475 10476 10479 10482 10483 10484 10484 10484 10486 10487 10489 10491 10492 10493 10495 10497 10500 10501 10503 10505 10507 10508 10510 10511 10511 10512 10513 10514 10515 10516 10517 10518 10519 10520 10520 10522 10525 10527 10530 10534 10535 10537 10539 10541 10543 10545 10546
10432 10434 10435 10435 10436 10437 10438 10439 10440 10441 10443 10444 10445 10446 10448 10449 10451 10453 10454 10455 10457 10459 10462 10464 10463 10464 10465 10466 10467 10470 10470 10465 10461 10461 10463 10462 10463 10467 10467 10467 10468 10470 10471 10473 10475 10476 10477 10479 10479 10481 10482 10483 10484 10486 10489 10491 10492 10495 10497 10498 10499 10500 10500 10501 10502 10502 10502 10504 10505 10506 10507 10509 10510 10510 10512 10514 10518 10521 10523 10524 10527 10530 10532 10533 10535
10423 10424 10426 10427 10428 10429 10429 10430 10431 10432 10433 10434 10435 10436 10438 10439 10441 10443 10444 10446 10448 10450 10452 10454 10455 10455 10456 10458 10461 10464 10461 10455 10450 10451 10454 10455 10456 10459 10461 10459 10458 10458 10459 10462 10464 10466 10468 10469 10470 10470 10471 10472 10474 10476 10478 10480 10482 10484 10486 10487 10488 10488 10489 10490 10490 10490 10491 10492 10494 10495 10495 10497 10499 10499 10498 10501 10505 10507 10509 10512 10514 10517 10519 10521 10523
10413 10414 10416 10417 10418 10420 10421 10422 10422 10423 10424 10424 10425 10426 10427 10429 10430 10432 10434 10436 10437 10439 10441 10444 10446 10446 10448 10451 10454 10453 10448 10443 10441 10443 10447 10448 10448 10450 10451 10451 10450 10448 10448 10451 10454 10455 10457 10458 10459 10460 10460 10461 10464 10466 10468 10469 10470 10472 10474 10475 10476 10477 10477 10478 10478 10479 10479 10481 10483 10484 10484 10485 10488 10488 10487 10488 10491 10493 10496 10499 10501 10503 10506 10508 10510
10401 10403 10404 10405 10407 10409 10410 10412 10413 10414 10414 10415 10415 10416 10417 10418 10419 10421 10423 10425 10427 10429 10431 10433 10435 10437 10442 10445 10443 10438 10434 10434 10435 10437 10439 10439 10439 10440 10442 10442 10441 10440 10441 10443 10444 10444 10445 10447 10448 10449 10449 10451 10454 10456 10456 10457 10457 10459 10461 10463 10464 10464 10465 10465 10466 10467 10468 10469 10471 10473 10473 10473 10474 10476 10476 10476 10478 10480 10482 10486 10488 10490 10493 10495 10497
10389 10391 10392 10393 10395 10396 10398 10400 10402 10403 10404 10405 10406 10407 10408 10409 10409 10411 10412 10414 10416 10418 10421 10423 10424 10427 10431 10432 10429 10426 10426 10427 10429 10429 10428 10428 10428 10430 10432 10432 10432 10432 10433 10434 10434 10434 10434 10435 10436 10437 10438 10441 10444 10445 10444 10443 10444 10447 10449 10451 10451 10451 10451 10451 10452 10454 10455 10457 10458 10460 10461 10461 10462 10463 10463 10464 10465 10466 10469 10473 10476 10477 10479 10483 10485
10378 10379 10380 10381 10382 10383 10385 10387 10389 10391 10393 10394 10395 10396 10398 10399 10400 10401 10402 10403 10405 10408 10411 10413 10413 10414 10416 10417 10416 10417 10418 10419 10419 10418 10418 10417 10418 10419 10421 10422 10423 10424 10424 10424 10424 10423 10423 10424 10425 10426 10428 10431 10432 10432 10431 10431 10433 10435 10436 10437 10437 10437 10437 10437 10439 10441 10442 10444 10445 10446 10448 10449 10449 10449 10450 10451 10452 10453 10455 10459 10461 10462 10466 10471 10473
10368 10368 10369 10370 10371 10372 10373 10374 10376 10378 10380 10381 10383 10384 10386 10388 10389 10391 10392 10392 10395 10399 10401 10400 10400 10401 10403 10405 10405 10406 10406 10407 10407 10407 10407 10407 10408 10409 10411 10412 10412 10412 10412 10412 10412 10412 10412 10413 10415 10416 10418 10419 10419 10419 10419 10420 10420 10421 10422 10423 10424 10424 10424 10425 10427 10428 10429 10430 10432 10433 10434 10434 10434 10435 10436 10437 10438 10438 10441 10444 10445 10446 10452 10456 10458
10357 10357 10358 10359 10360 10361 10362 10363 10364 10365 10366 10367 10369 10371 10373 10375 10377 10378 10380 10382 10385 10388 10387 10385 10387 10390 10392 10393 10394 10394 10394 10395 10395 10395 10396 10396 10397 10398 10399 10400 10400 10400 10400 10400 10401 10401 10401 10402 10404 10405 10406 10407 10407 10407 10408 10408 10408 10408 10409 10410 10411 10411 10412 10413 10415 10415 10415 10416 10417 10418 10419 10420 10420 10421 10422 10422 10423 10423 10425 10429 10430 10432 10436 10439 10441
10345 10346 10347 10348 10349 10350 10351 10353 10354 10354 10354 10354 10355 10357 10359 10361 10364 10365 10367 10371 10374 10374 10372 10372 10376 10380 10381 10381 10382 10382 10382 10383 10383 10384 10385 10386 10386 10387 10387 10388 10388 10388 10389 10389 10390 10390 10390 10392 10394 10394 10395 10395 10395 10395 10395 10395 10395 10395 10395 10396 10398 10398 10399 10400 10402 10402 10402 10403 10403 10403 10404 10405 10405 10406 10407 10407 10407 10407 10409 10412 10414 10417 10420 10423 10425
10334 10335 10336 10336 10338 10339 10340 10342 10343 10343 10343 10343 10344 10346 10347 10350 10352 10352 10355 10360 10361 10358 10358 10362 10366 10368 10369 10369 10369 10370 10370 10371 10372 10373 10373 10374 10374 10375 10375 10376 10377 10377 10378 10378 10379 10379 10379 10380 10383 10384 10383 10383 10382 10382 10382 10382 10382 10382 10382 10383 10384 10385 10386 10388 10388 10389 10389 10389 10389 10389 10389 10389 10389 10390 10391 10392 10392 10392 10393 10395 10397 10399 10403 10407 10409
10323 10324 10324 10325 10327 10328 10329 10330 10330 10331 10332 10332 10334 10335 10336 10339 10340 10339 10342 10349 10347 10343 10346 10352 10354 10355 10357 10357 10357 10358 10358 10359 10360 10361 10361 10362 10362 10363 10364 10365 10366 10367 10367 10367 10368 10368 10368 10369 10373 10373 10371 10370 10370 10370 10370 10369 10369 10369 10369 10370 10371 10372 10373 10375 10375 10375 10375 10375 10375 10375 10375 10375 10374 10374 10375 10375 10376 10377 10378 10380 10381 10383 10385 10388 10391
10311 10312 10313 10314 10316 10316 10317 10318 10319 10319 10321 10322 10323 10324 10325 10328 10329 10328 10331 10335 10334 10332 10335 10339 10340 10342 10344 10345 10345 10346 10347 10347 10348 10349 10349 10350 10352 10353 10353 10354 10355 10356 10357 10357 10357 10358 10358 10359 10361 10361 10359 10358 10358 10358 10357 10357 10357 10357 10358 10358 10358 10359 10360 10360 10361 10361 10361 10362 10362 10362 10361 10361 10360 10360 10360 10359 10360 10361 10363 10365 10366 10368 10369 10372 10374
10300 10301 10302 10303 10304 10305 10305 10306 10307 10308 10310 10311 10312 10312 10314 10317 10318 10318 10319 10321 10321 10322 10324 10325 10326 10329 10331 10332 10333 10334 10335 10336 10336 10337 10338 10339 10340 10341 10342 10343 10344 10344 10345 10346 10347 10347 10348 10348 10348 10348 10348 10347 10346 10346 10346 10346 10347 10347 10347 10346 10346 10346 10346 10346 10346 10347 10347 10348 10348 10349 10348 10347 10346 10346 10345 10345 10345 10346 10347 10349 10351 10353 10355 10358 10360
10291 10291 10292 10292 10293 10294 10294 10294 10296 10298 10299 10300 10300 10302 10304 10307 10308 10307 10307 10308 10309 10311 10313 10313 10315 10317 10318 10319 10321 10322 10323 10324 10325 10326 10327 10327 10328 10330 10331 10332 10333 10333 10335 10336 10336 10336 10336 10336 10336 10336 10336 10335 10336 10336 10336 10336 10337 10337 10336 10335 10334 10333 10333 10333 10333 10334 10334 10335 10335 10335 10335 10334 10333 10332 10332 10331 10331 10331 10332 10334 10337 10339 10342 10344 10346
10281 10281 10282 10283 10283 10283 10283 10284 10286 10288 10288 10290 10292 10293 10295 10298 10297 10296 10296 10298 10299 10300 10302 10303 10304 10306 10307 10308 10309 10310 10312 10314 10315 10315 10316 10317 10318 10319 10320 10321 10322 10323 10325 10325 10325 10325 10325 10324 10324 10324 10324 10325 10325 10326 10326 10326 10326 10325 10324 10323 10322 10322 10322 10322 10322 10322 10323 10322 10322 10321 10321 10320 10319 10318 10318 10317 10317 10318 10318 10320 10323 10326 10329 10332 10334
10271 10272 10273 10273 10272 10272 10274 10275 10277 10277 10280 10282 10283 10283 10286 10288 10288 10287 10287 10288 10289 10290 10292 10294 10295 10296 10297 10298 10299 10301 10303 10304 10305 10305 10307 10308 10309 10310 10311 10312 10313 10313 10314 10315 10315 10315 10314 10314 10314 10314 10315 10316 10316 10316 10316 10315 10314 10313 10312 10311 10311 10311 10311 10311 10311 10311 10311 10311 10310 10310 10308 10307 10306 10305 10304 10304 10305 10306 10307 10309 10312 10315 10317 10320 10322
10261 10262 10263 10262 10263 10264 10265 10266 10268 10269 10272 10273 10272 10274 10277 10278 10278 10279 10279 10278 10280 10282 10283 10285 10286 10286 10287 10288 10290 10292 10293 10294 10296 10297 10297 10298 10299 10301 10302 10302 10303 10303 10304 10305 10305 10305 10305 10305 10306 10306 10307 10307 10306 10305 10304 10303 10302 10302 10302 10301 10300 10300 10300 10300 10300 10300 10300 10300 10299 10298 10297 10295 10294 10293 10293 10294 10295 10296 10297 10299 10302 10304 10305 10307 10308
10252 10253 10252 10254 10256 10256 10255 10257 10261 10262 10263 10263 10263 10265 10268 10268 10268 10270 10271 10270 10272 10273 10274 10276 10277 10277 10279 10281 10282 10283 10284 10286 10287 10288 10289 10290 10291 10292 10293 10293 10294 10294 10295 10295 10296 10296 10297 10297 10298 10298 10297 10296 10296 10295 10294 10294 10293 10293 10292 10291 10290 10290 10290 10290 10290 10290 10290 10289 10288 10287 10286 10286 10285 10284 10285 10285 10286 10286 10288 10290 10292 10293 10294 10295 10296
10243 10244 10245 10246 10247 10247 10247 10250 10253 10254 10255 10254 10254 10256 10258 10259 10260 10262 10263 10263 10264 10265 10266 10268 10268 10269 10271 10273 10274 10275 10276 10277 10278 10279 10281 10282 10282 10283 10284 10285 10285 10286 10286 10287 10288 10289 10289 10289 10289 10288 10288 10287 10287 10286 10286 10285 10284 10283 10282 10281 10281 10281 10281 10281 10280 10280 10279 10278 10277 10277 10277 10277 10277 10276 10277 10278 10278 10278 10279 10281 10282 10283 10283 10284 10286
10235 10236 10237 10237 10238 10239 10240 10242 10244 10245 10247 10247 10247 10248 10250 10251 10252 10254 10255 10256 10257 10257 10259 10260 10261 10262 10264 10265 10266 10267 10268 10269 10270 10272 10273 10273 10274 10275 10276 10277 10277 10278 10280 10281 10281 10281 10280 10280 10280 10280 10280 10279 10279 10278 10277 10276 10275 10274 10274 10273 10272 10272 10272 10271 10271 10270 10270 10269 10268 10269 10269 10269 10269 10269 10269 10270 10270 10270 10271 10272 10273 10273 10274 10275 10275
10227 10228 10228 10229 10230 10231 10233 10234 10235 10237 10238 10239 10240 10241 10242 10243 10245 10247 10248 10249 10250 10251 10252 10253 10254 10255 10256 10258 10259 10260 10261 10262 10263 10264 10265 10266 10267 10267 10268 10270 10271 10272 10273 10273 10273 10272 10272 10273 10273 10273 10272 10272 10271 10270 10268 10268 10267 10267 10266 10265 10264 10264 10264 10263 10262 10262 10262 10261 10261 10261 10262 10262 10261 10261 10262 10262 10262 10263 10263 10264 10265 10266 10266 10266 10267
10217 10218 10220 10221 10222 10224 10225 10226 10226 10228 10230 10232 10233 10234 10235 10237 10239 10240 10241 10242 10243 10245 10245 10247 10248 10249 10250 10251 10252 10253 10254 10255 10256 10257 10258 10259 10260 10261 10263 10264 10265 10265 10265 10265 10266 10266 10266 10266 10266 10265 10264 10264 10263 10261 10261 10260 10260 10259 10259 10258 10257 10256 10256 10256 10255 10255 10254 10254 10254 10255 10255 10255 10255 10255 10255 10256 10256 10256 10257 10258 10259 10259 10259 10259 10259
10208 10210 10212 10214 10215 10216 10217 10218 10218 10220 10222 10225 10226 10228 10229 10231 10232 10234 10235 10236 10237 10238 10239 10240 10242 10243 10244 10245 10246 10247 10248 10249 10250 10251 10252 10253 10254 10256 10258 10258 10258 10258 10258 10259 10259 10260 10260 10260 10259 10258 10257 10256 10255 10254 10254 10253 10252 10252 10251 10251 10250 10250 10250 10249 10249 10248 10248 10248 10248 10249 10249 10249 10250 10250 10250 10250 10251 10251 10251 10252 10253 10253 10253 10253 10253
10200 10202 10205 10206 10207 10208 10209 10210 10211 10213 10215 10217 10219 10221 10223 10225 10226 10227 10228 10229 10231 10232 10233 10234 10235 10237 10238 10239 10241 10242 10243 10244 10244 10246 10247 10248 10250 10251 10251 10252 10252 10252 10253 10253 10254 10254 10253 10253 10252 10251 10250 10249 10248 10248 10247 10246 10246 10246 10245 10245 10244 10244 10244 10244 10244 10243 10243 10243 10243 10243 10244 10244 10245 10245 10245 10245 10246 10246 10246 10246 10247 10247 10247 10247 10247
10193 10195 10197 10199 10199 10200 10202 10203 10204 10206 10209 10211 10213 10215 10217 10218 10219 10220 10222 10223 10224 10226 10227 10228 10229 10231 10232 10234 10235 10236 10237 10238 10239 10241 10242 10243 10244 10244 10245 10245 10246 10246 10247 10247 10247 10247 10247 10246 10246 10245 10244 10243 10242 10242 10241 10241 10240 10240 10240 10240 10240 10240 10240 10240 10239 10239 10239 10238 10239 10239 10239 10240 10240 10240 10240 10240 10241 10241 10241 10241 10241 10241 10242 10242 10242
10187 10188 10190 10191 10192 10194 10195 10196 10197 10200 10202 10204 10206 10208 10209 10211 10212 10214 10215 10216 10218 10219 10221 10223 10224 10225 10226 10228 10229 10230 10231 10232 10234 10235 10236 10237 10238 10238 10239 10239 10240 10240 10241 10241 10241 10241 10241 10240 10240 10239 10238 10237 10237 10236 10236 10236 10236 10236 10235 10235 10235 10235 10236 10236 10235 10235 10235 10235 10235 10235 10235 10235 10235 10235 10235 10235 10236 10236 10235 10236 10236 10236 10236 10237 10237
10179 10180 10182 10184 10185 10187 10188 10189 10191 10194 10196 10198 10199 10201 10202 10204 10205 10207 10209 10210 10212 10214 10215 10216 10218 10219 10220 10222 10223 10224 10226 10227 10228 10230 10230 10231 10232 10232 10233 10234 10234 10235 10235 10235 10235 10235 10235 10234 10234 10233 10233 10232 10232 10232 10232 10232 10232 10232 10231 10232 10232 10232 10232 10232 10232 10232 10232 10232 10232 10232 10232 10231 10231 10231 10231 10231 10231 10231 10231 10231 10231 10231 10232 10232 10233
10172 10173 10175 10177 10178 10180 10182 10183 10185 10188 10190 10191 10193 10194 10196 10197 10199 10201 10203 10204 10206 10207 10209 10210 10212 10213 10214 10216 10218 10219 10220 10221 10223 10224 10225 10225 10226 10227 10227 10228 10229 10229 10230 10230 10230 10230 10230 10230 10229 10228 10228 10228 10228 10228 10228 10228 10228 10228 10228 10228 10229 10229 10229 10229 10229 10229 10229 10229 10229 10229 10228 10228 10228 10228 10227 10227 10227 10227 10227 10227 10228 10228 10228 10228 10229
10166 10167 10169 10170 10172 10173 10175 10177 10180 10182 10184 10185 10187 10188 10190 10192 10194 10195 10197 10199 10200 10202 10203 10204 10205 10207 10209 10211 10212 10213 10214 10216 10217 10218 10219 10220 10220 10221 10222 10223 10224 10224 10224 10225 10225 10225 10225 10225 10225 10224 10224 10224 10224 10224 10224 10224 10225 10225 10225 10225 10226 10226 10226 10226 10226 10226 10226 10226 10226 10225 10225 10225 10225 10224 10224 10224 10224 10224 10224 10224 10224 10224 10225 10225 10225
10160 10161 10162 10164 10165 10168 10169 10171 10174 10176 10178 10180 10181 10183 10184 10186 10188 10190 10192 10193 10195 10196 10197 10198 10200 10202 10203 10205 10206 10207 10209 10210 10211 10212 10213 10214 10215 10216 10217 10218 10219 10219 10219 10220 10220 10221 10221 10221 10221 10220 10220 10220 10220 10221 10221 10221 10221 10222 10222 10223 10223 10223 10224 10224 10224 10223 10223 10223 10223 10223 10222 10222 10222 10222 10221 10221 10221 10221 10221 10221 10221 10221 10221 10222 10222
10153 10155 10156 10158 10160 10162 10164 10166 10168 10171 10173 10175 10176 10177 10179 10181 10183 10185 10187 10188 10190 10191 10192 10193 10195 10196 10198 10200 10201 10202 10204 10205 10206 10207 10208 10209 10210 10211 10212 10213 10214 10214 10215 10216 10216 10216 10217 10217 10217 10216 10216 10217 10217 10217 10217 10218 10218 10219 10220 10220 10220 10221 10221 10221 10221 10221 10220 10220 10220 10220 10219 10219 10219 10219 10219 10219 10219 10219 10219 10218 10218 10218 10218 10218 10218
10147 10149 10152 10154 10156 10158 10159 10161 10163 10165 10168 10170 10171 10172 10174 10177 10179 10180 10182 10183 10185 10186 10187 10189 10190 10192 10193 10195 10197 10198 10199 10200 10201 10202 10204 10205 10206 10207 10208 10209 10209 10210 10211 10211 10212 10212 10213 10213 10213 10213 10213 10213 10214 10214 10214 10214 10215 10216 10217 10217 10218 10218 10218 10218 10218 10218 10218 10218 10217 10217 10217 10217 10217 10217 10217 10216 10216 10216 10216 10216 10216 10215 10215 10215 10215
10143 10145 10147 10149 10151 10153 10154 10156 10158 10160 10163 10165 10166 10168 10170 10172 10174 10176 10177 10179 10180 10182 10183 10184 10186 10188 10189 10191 10192 10193 10194 10196 10197 10198 10200 10201 10202 10203 10204 10205 10205 10206 10206 10207 10208 10208 10209 10209 10209 10209 10209 10210 10210 10210 10211 10212 10213 10214 10214 10215 10215 10215 10216 10215 10215 10215 10215 10215 10215 10214 10214 10214 10214 10214 10214 10214 10214 10214 10214 10213 10213 10213 10213 10213 10213
10139 10141 10143 10145 10146 10148 10150 10153 10154 10156 10158 10160 10162 10164 10166 10168 10170 10171 10173 10175 10176 10178 10179 10181 10182 10184 10185 10187 10188 10189 10190 10191 10193 10194 10195 10197 10198 10199 10200 10200 10201 10201 10202 10203 10203 10204 10205 10205 10205 10206 10206 10207 10207 10207 10208 10209 10210 10211 10211 10212 10212 10212 10213 10213 10213 10213 10213 10213 10212 10212 10212 10212 10212 10212 10212 10212 10211 10211 10211 10211 10211 10210 10210 10210 10210
10135 10137 10139 10141 10143 10145 10147 10149 10151 10153 10155 10156 10158 10160 10162 10164 10166 10167 10169 10171 10172 10174 10175 10177 10178 10179 10181 10182 10184 10185 10186 10187 10188 10190 10192 10193 10194 10195 10195 10196 10196 10197 10198 10198 10199 10200 10201 10201 10202 10202 10203 10203 10204 10204 10205 10206 10207 10208 10209 10209 10209 10209 10210 10210 10210 10210 10211 10210 10210 10210 10210 10210 10210 10210 10210 10210 10209 10208 10208 10208 10208 10208 10208 10208 10207
10132 10134 10136 10138 10140 10142 10144 10146 10148 10149 10151 10153 10155 10157 10158 10160 10162 10163 10165 10166 10168 10169 10171 10173 10174 10175 10177 10178 10179 10180 10182 10183 10184 10186 10188 10189 10190 10190 10191 10191 10192 10193 10193 10194 10195 10197 10198 10198 10198 10199 10200 10200 10200 10201 10202 10203 10204 10205 10206 10206 10206 10207 10207 10207 10208 10208 10208 10208 10208 10208 10208 10208 10208 10208 10208 10207 10206 10206 10205 10205 10205 10205 10205 10205 10205
10129 10131 10133 10135 10138 10139 10141 10143 10144 10146 10148 10149 10151 10153 10154 10156 10158 10159 10161 10162 10164 10165 10167 10168 10170 10171 10173 10174 10175 10176 10177 10179 10180 10182 10183 10184 10185 10186 10186 10187 10188 10188 10189 10190 10191 10193 10194 10194 10194 10195 10196 10197 10197 10198 10198 10200 10201 10202 10202 10203 10203 10204 10204 10204 10205 10205 10206 10206 10206 10206 10206 10206 10206 10206 10206 10205 10204 10204 10203 10203 10204 10203 10203 10203 10203
10126 10127 10130 10133 10135 10136 10138 10140 10141 10143 10144 10146 10147 10149 10151 10152 10154 10155 10157 10158 10160 10161 10163 10164 10166 10167 10168 10169 10171 10172 10173 10174 10175 10176 10178 10179 10180 10181 10182 10183 10183 10184 10185 10186 10188 10189 10190 10190 10191 10192 10193 10193 10194 10194 10195 10196 10198 10199 10199 10200 10200 10201 10201 10202 10202 10203 10203 10203 10203 10204 10204 10204 10204 10204 10204 10204 10203 10202 10202 10202 10202 10202 10202 10201 10201
10122 10124 10127 10130 10132 10133 10135 10137 10138 10140 10141 10142 10144 10145 10147 10149 10150 10152 10153 10155 10156 10157 10159 10160 10162 10163 10164 10165 10166 10167 10168 10169 10170 10171 10172 10174 10175 10176 10177 10178 10179 10180 10181 10182 10183 10184 10185 10186 10187 10188 10189 10190 10190 10191 10192 10193 10194 10195 10196 10197 10197 10198 10198 10199 10200 10200 10201 10201 10201 10202 10202 10202 10202 10203 10203 10202 10202 10202 10201 10201 10201 10200 10200 10200 10200
10119 10121 10124 10127 10128 10130 10131 10133 10134 10136 10137 10138 10140 10142 10143 10145 10146 10148 10149 10150 10152 10153 10154 10156 10157 10158 10159 10161 10162 10162 10163 10164 10166 10167 10168 10169 10170 10171 10173 10174 10175 10176 10177 10178 10179 10180 10180 10182 10183 10184 10185 10186 10187 10187 10188 10189 10191 10192 10193 10193 10194 10195 10195 10196 10197 10198 10198 10199 10199 10200 10200 10200 10201 10201 10201 10201 10201 10201 10200 10200 10200 10199 10199 10198 10198